Rabat, Morocco

10:12 AM WET on February 25, 2017 (GMT +0000)
Sale

Weather History for GMME - November, 2012

Change the Weather History Date:

Sunday, November 25, 2012

  Actual Average Record
Temperature  
Mean Temperature 65 °F -  
Max Temperature 77 °F 64 °F 77 °F (2012)
Min Temperature 53 °F 47 °F 42 °F (1998)
Growing Degree Days 15 (Base 50)    
Moisture  
Dew Point 54 °F    
Average Humidity 71    
Maximum Humidity 94    
Minimum Humidity 39    
Precipitation  
Precipitation 0.00 in 0.13 in - ()
Sea Level Pressure  
Sea Level Pressure 29.99 in    
Wind  
Wind Speed 2 mph ()    
Max Wind Speed 7 mph    
Max Gust Speed -    
Visibility 3.3 miles    
Events      
Averages and records for this station are not official NWS values.
T = Trace of Precipitation, MM = Missing Value Source: Averaged Metar Reports

Daily Weather History Graph

Daily Weather History Graph

Search for Another Location

Airport or City:

Trip Planner

Search our weather history database for the weather conditions in past years. The results will help you decide how hot, cold, wet, or windy it might be!

Date:

Astronomy

Nov. 25, 2012 Rise Set
Actual Time 7:09 AM WET 5:18 PM WET
Civil Twilight 6:42 AM WET 5:45 PM WET
Nautical Twilight 6:11 AM WET 6:16 PM WET
Astronomical Twilight 5:41 AM WET 6:46 PM WET
Moon 3:23 PM WET 4:15 AM WET
Length of Visible Light 11h 03m
Length of Day
10h 09m
Waxing Gibbous, 91% of the Moon is Illuminated
Nov 25
Waxing Gibbous
Nov 28
Full
Dec 6
Last Quarter
Dec 13
New
Dec 20
First Quarter

Hourly Weather History & Observations

Time (WET) Temp. Dew Point Humidity Pressure Visibility Wind Dir Wind Speed Gust Speed Precip Events Conditions
12:00 AM 55 °F 53 °F 89% 30.06 in 3 mi Calm Calm - -   Clear
12:00 AM 55.4 °F 53.6 °F 94% 30.04 in 3.1 mi Calm Calm - N/A   Unknown
12:30 AM 55.4 °F 53.6 °F 94% 30.04 in 3.1 mi Calm Calm - N/A   Unknown
1:00 AM 55.4 °F 53.6 °F 94% 30.04 in 3.1 mi Calm Calm - N/A   Unknown
1:30 AM 57.2 °F 53.6 °F 88% 30.04 in 3.1 mi SE 5.8 mph - N/A   Unknown
2:00 AM 57.2 °F 53.6 °F 88% 30.01 in 3.1 mi Variable 2.3 mph - N/A   Unknown
2:30 AM 57.2 °F 53.6 °F 88% 30.01 in 3.1 mi SE 5.8 mph - N/A   Unknown
3:00 AM 57 °F 52 °F 79% 30.03 in 3 mi SE 5.8 mph - -   Clear
3:00 AM 57.2 °F 51.8 °F 82% 30.01 in 3.1 mi SE 5.8 mph - N/A   Unknown
3:30 AM 57.2 °F 51.8 °F 82% 30.01 in - SE 5.8 mph - N/A   Unknown
4:00 AM 57.2 °F 50.0 °F 77% 29.98 in - SE 4.6 mph - N/A   Unknown
4:30 AM 57.2 °F 50.0 °F 77% 29.98 in 3.1 mi Calm Calm - N/A   Unknown
5:00 AM 57.2 °F 48.2 °F 72% 29.98 in 3.1 mi Calm Calm - N/A   Unknown
5:30 AM 57.2 °F 48.2 °F 72% 30.01 in 3.1 mi Calm Calm - N/A   Unknown
6:00 AM 56 °F 48 °F 67% 30.01 in 3 mi Calm Calm - -   Clear
6:00 AM 55.4 °F 48.2 °F 77% 30.01 in 3.1 mi Calm Calm - N/A   Unknown
6:30 AM 57.2 °F 48.2 °F 72% 30.01 in 3.1 mi Calm Calm - N/A   Unknown
7:00 AM 59.0 °F 48.2 °F 67% 30.01 in 3.1 mi Calm Calm - N/A   Unknown
7:30 AM 57.2 °F 50.0 °F 77% 30.01 in 3.1 mi Calm Calm - N/A   Unknown
8:00 AM 59.0 °F 50.0 °F 72% 30.01 in 3.1 mi Calm Calm - N/A   Unknown
8:30 AM 60.8 °F 51.8 °F 72% 30.01 in 3.7 mi Calm Calm - N/A   Unknown
9:00 AM 64 °F 53 °F 58% 30.02 in 4 mi Calm Calm - -   Partly Cloudy
9:00 AM 64.4 °F 53.6 °F 68% 30.01 in 3.7 mi Calm Calm - N/A   Unknown
9:30 AM 68.0 °F 53.6 °F 60% 30.01 in 3.7 mi Calm Calm - N/A   Unknown
10:00 AM 71.6 °F 55.4 °F 57% 30.01 in 3.7 mi Calm Calm - N/A   Unknown
10:30 AM 73.4 °F 53.6 °F 50% 30.01 in 3.7 mi Calm Calm - N/A   Unknown
11:00 AM 73.4 °F 53.6 °F 50% 30.01 in 3.7 mi Calm Calm - N/A   Unknown
11:30 AM 73.4 °F 57.2 °F 57% 30.01 in 3.7 mi Calm Calm - N/A   Unknown
12:00 PM 74 °F 54 °F 39% 30.01 in 4 mi Calm Calm - -   Clear
12:00 PM 73.4 °F 55.4 °F 53% 30.01 in 3.7 mi Calm Calm - N/A   Unknown
12:30 PM 75.2 °F 55.4 °F 50% 29.98 in 3.7 mi Calm Calm - N/A   Unknown
1:00 PM 75.2 °F 57.2 °F 53% 29.98 in - NNW 3.5 mph - N/A   Unknown
1:30 PM 73.4 °F 57.2 °F 57% 29.98 in 3.1 mi NNW 4.6 mph - N/A   Unknown
2:00 PM 75.2 °F 55.4 °F 50% 29.95 in 3.1 mi North 5.8 mph - N/A   Unknown
2:30 PM 77.0 °F 55.4 °F 47% 29.95 in 3.1 mi North 6.9 mph - N/A   Unknown
3:00 PM 74 °F 54 °F 40% 29.95 in 3 mi NNE 5.8 mph - -   Clear
3:00 PM 75.2 °F 55.4 °F 50% 29.95 in 3.1 mi NNE 5.8 mph - N/A   Unknown
3:30 PM 77.0 °F 53.6 °F 44% 29.95 in 3.1 mi NE 5.8 mph - N/A   Unknown
4:00 PM 73.4 °F 53.6 °F 50% 29.95 in 3.1 mi NNE 4.6 mph - N/A   Unknown
4:30 PM 71.6 °F 57.2 °F 60% 29.95 in 3.1 mi North 3.5 mph - N/A   Unknown
5:00 PM 69.8 °F 59.0 °F 68% 29.95 in - Calm Calm - N/A   Unknown
5:19 PM 68.0 °F 59.0 °F 73% 29.95 in 2.5 mi Calm Calm - N/A   Mist
5:30 PM 68.0 °F 59.0 °F 73% 29.95 in 2.5 mi NE 2.3 mph - N/A   Mist
6:00 PM - - %  in - Calm Calm - -  
6:00 PM 66.2 °F 59.0 °F 78% 29.95 in 2.5 mi Calm Calm - N/A   Mist
6:30 PM 64.4 °F 59.0 °F 83% 29.95 in 2.5 mi Calm Calm - N/A   Mist
7:00 PM 62.6 °F 57.2 °F 82% 29.95 in 2.5 mi Calm Calm - N/A   Mist
7:30 PM 64.4 °F 60.8 °F 88% 29.95 in 2.5 mi North 6.9 mph - N/A   Mist
8:00 PM 62.6 °F 59.0 °F 88% 29.95 in 2.5 mi NE 5.8 mph - N/A   Mist
8:12 PM 62.6 °F 59.0 °F 88% 29.95 in 3.7 mi ENE 4.6 mph - N/A   Unknown
8:30 PM 62.6 °F 59.0 °F 88% 29.95 in 3.7 mi Calm Calm - N/A   Unknown
9:00 PM 62 °F 57 °F 79% 29.97 in 4 mi Calm Calm - -   Clear
9:00 PM 60.8 °F 57.2 °F 88% 29.95 in 3.7 mi Calm Calm - N/A   Unknown
9:30 PM 60.8 °F 57.2 °F 88% 29.95 in 3.7 mi Calm Calm - N/A   Unknown
10:00 PM 60.8 °F 55.4 °F 82% 29.95 in 3.7 mi Calm Calm - N/A   Unknown
10:30 PM 62.6 °F 53.6 °F 72% 29.95 in 3.7 mi Calm Calm - N/A   Unknown
11:00 PM 62.6 °F 53.6 °F 72% 29.95 in 3.7 mi Calm Calm - N/A   Unknown
11:30 PM 62.6 °F 53.6 °F 72% 29.95 in 3.7 mi Calm Calm - N/A   Unknown